Terug naar catalogus

HAWK-B

ActiefWetenschapSSO
NORAD 43794·PAYLOAD·🇺🇸 United States

Gelanceerd Dec 3, 2018 vanaf Vandenberg Space Force Base

Loading…

Volgende Passages (komende 24 uur)

TLE

VersSource: Space-Track

Epoch: Sep 14, 2026, 02:47 UTC

1 43794U 18099AN  26257.11652246  .00004832  00000-0  20144-3 0  9994
2 43794  97.3870 307.4327 0030989 354.0978   5.9890 15.23731361426571

Volg HAWK-B in realtime met AllMySat

Download on the App Store